Location: Bald Rock
(37.3738°N, 119.9354°W)
Time: 22:49:35
(UTC+00:00)

Cosmos 1825 Rocket - Pass Details

Date: 08 September 2024
Orbit: 599 x 626 km, 82.5° (Epoch: 12 October)

Event Time Altitude Azimuth Distance (km) Brightness Sun altitude
Rises 12:28:14 0° 357° (N) 2,916 7.2 -14.0°
Reaches altitude 10° 12:30:31 10° 1° (N) 2,002 6.4 -13.6°
Maximum altitude 12:34:53 58° 81° (E) 725 4.3 -12.8°
Drops below altitude 10° 12:39:12 10° 161° (SSE) 1,973 6.2 -12.0°
Sets 12:41:26 0° 165° (SSE) 2,870 7.0 -11.5°
